When you browse on this site, cookies collect data to enhance your experience and personalize the content and advertising you see.
Visit our Privacy Policy to learn more. By continuing to use the site, you agree to this use of cookies and data.
  • In France
  • List of Countries
  • For 7 days
  • Water Temperature
  • Satellite Maps
  • Weather Map
  • Weather Widgets
  • user-avatar
    Login

    Hourly Weather Lowech

    Today, 22 March, Friday

    Time Temperature Precipitation Wind Pressure Humidity
    00:00 +6°C° 0 mm 0 mps 747 mmHg 78%
    01:00 +6°C° 0 mm 0 mps 747 mmHg 78%
    02:00 +6°C° 0 mm 0 mps 747 mmHg 79%
    03:00 +5°C° 0 mm 0 mps 746 mmHg 80%
    04:00 +6°C° 0 mm 1 mps 746 mmHg 81%
    05:00 +6°C° 0 mm 1 mps 746 mmHg 81%
    06:00 +6°C° 0 mm 0 mps 746 mmHg 78%
    07:00 +7°C° 0 mm 0 mps 746 mmHg 76%
    08:00 +7°C° 0 mm 0 mps 747 mmHg 73%
    09:00 +10°C° 0 mm 1 mps 746 mmHg 67%
    10:00 +12°C° 0 mm 1 mps 746 mmHg 61%
    11:00 +13°C° 0 mm 1 mps 746 mmHg 56%
    12:00 +14°C° 0 mm 1 mps 745 mmHg 53%
    13:00 +15°C° 0 mm 1 mps 745 mmHg 49%
    14:00 +16°C° 0 mm 2 mps 744 mmHg 46%
    15:00 +15°C° 0 mm 2 mps 744 mmHg 47%
    16:00 +15°C° 0 mm 2 mps 744 mmHg 47%
    17:00 +15°C° 0 mm 2 mps 743 mmHg 48%
    18:00 +14°C° 0 mm 1 mps 743 mmHg 53%
    19:00 +12°C° 0 mm 1 mps 743 mmHg 58%
    20:00 +10°C° 0 mm 0 mps 743 mmHg 63%
    21:00 +10°C° 0 mm 0 mps 744 mmHg 64%
    22:00 +10°C° 0 mm 1 mps 744 mmHg 66%
    23:00 +10°C° 0 mm 1 mps 744 mmHg 67%

    Tomorrow, 23 March, Saturday

    Time Temperature Precipitation Wind Pressure Humidity
    00:00 +10°C° 0 mm 1 mps 744 mmHg 67%
    01:00 +9°C° 0 mm 1 mps 744 mmHg 68%
    02:00 +9°C° 0 mm 1 mps 744 mmHg 68%
    03:00 +9°C° 0 mm 1 mps 744 mmHg 68%
    04:00 +9°C° 0 mm 1 mps 743 mmHg 68%
    05:00 +8°C° 0 mm 1 mps 743 mmHg 69%
    06:00 +9°C° 0 mm 1 mps 743 mmHg 67%
    07:00 +9°C° 0 mm 0 mps 743 mmHg 65%
    08:00 +10°C° 0 mm 0 mps 744 mmHg 63%
    09:00 +12°C° 0 mm 1 mps 743 mmHg 58%
    10:00 +14°C° 0 mm 1 mps 743 mmHg 54%
    11:00 +15°C° 0 mm 1 mps 743 mmHg 49%
    12:00 +16°C° 0 mm 2 mps 742 mmHg 47%
    13:00 +17°C° 0 mm 2 mps 742 mmHg 45%
    14:00 +17°C° 0 mm 2 mps 741 mmHg 44%
    15:00 +17°C° 0 mm 2 mps 741 mmHg 44%
    16:00 +17°C° 0 mm 2 mps 741 mmHg 45%
    17:00 +17°C° 0 mm 2 mps 740 mmHg 45%
    18:00 +15°C° 0 mm 2 mps 741 mmHg 50%
    19:00 +14°C° 0 mm 2 mps 741 mmHg 55%
    20:00 +13°C° 0 mm 1 mps 741 mmHg 60%
    21:00 +12°C° 0 mm 1 mps 741 mmHg 61%
    22:00 +12°C° 0 mm 1 mps 742 mmHg 61%
    23:00 +11°C° 0 mm 1 mps 742 mmHg 62%

    Day after tomorrow, 24 March, Sunday

    Time Temperature Precipitation Wind Pressure Humidity
    00:00 +11°C° 0 mm 1 mps 742 mmHg 64%
    01:00 +10°C° 0 mm 1 mps 742 mmHg 67%
    02:00 +10°C° 0 mm 1 mps 742 mmHg 69%
    03:00 +9°C° 0 mm 1 mps 742 mmHg 71%
    04:00 +9°C° 0 mm 1 mps 742 mmHg 72%
    05:00 +8°C° 0 mm 1 mps 742 mmHg 73%
    06:00 +9°C° 0 mm 1 mps 742 mmHg 70%
    07:00 +9°C° 0 mm 1 mps 742 mmHg 67%
    08:00 +10°C° 0 mm 1 mps 742 mmHg 64%
    09:00 +11°C° 0 mm 1 mps 742 mmHg 58%
    10:00 +13°C° 0 mm 1 mps 742 mmHg 52%
    11:00 +14°C° 0 mm 1 mps 742 mmHg 45%
    12:00 +15°C° 0 mm 1 mps 741 mmHg 43%
    13:00 +16°C° 0 mm 2 mps 741 mmHg 41%
    14:00 +16°C° 0 mm 2 mps 741 mmHg 38%
    15:00 +16°C° 0 mm 1 mps 740 mmHg 38%
    16:00 +16°C° 0 mm 1 mps 740 mmHg 39%
    17:00 +16°C° 0 mm 1 mps 739 mmHg 39%
    18:00 +14°C° 0 mm 1 mps 739 mmHg 43%
    19:00 +13°C° 0 mm 1 mps 740 mmHg 48%
    20:00 +12°C° 0 mm 1 mps 740 mmHg 52%
    21:00 +11°C° 0 mm 1 mps 740 mmHg 53%
    22:00 +11°C° 0 mm 1 mps 740 mmHg 54%
    23:00 +9°C° 0 mm 2 mps 740 mmHg 56%

    25 March, Monday

    Time Temperature Precipitation Wind Pressure Humidity
    00:00 +9°C° 0 mm 2 mps 740 mmHg 56%
    01:00 +9°C° 0 mm 2 mps 739 mmHg 56%
    02:00 +9°C° 0 mm 2 mps 739 mmHg 57%
    03:00 +8°C° 0 mm 2 mps 739 mmHg 56%
    04:00 +8°C° 0 mm 2 mps 739 mmHg 55%
    05:00 +8°C° 0 mm 2 mps 738 mmHg 54%
    06:00 +9°C° 0 mm 2 mps 738 mmHg 53%
    07:00 +10°C° 0 mm 2 mps 739 mmHg 52%
    08:00 +12°C° 0 mm 2 mps 739 mmHg 51%
    09:00 +13°C° 0 mm 3 mps 738 mmHg 50%
    10:00 +14°C° 0 mm 4 mps 738 mmHg 49%
    11:00 +16°C° 0 mm 5 mps 738 mmHg 48%
    12:00 +17°C° 0 mm 5 mps 737 mmHg 47%
    13:00 +17°C° 0 mm 5 mps 737 mmHg 46%
    14:00 +19°C° 0 mm 6 mps 736 mmHg 45%
    15:00 +17°C° 0.1 mm 6 mps 736 mmHg 46%
    16:00 +17°C° 0.1 mm 6 mps 736 mmHg 47%
    17:00 +16°C° 0.1 mm 5 mps 736 mmHg 48%
    18:00 +14°C° 0 mm 4 mps 736 mmHg 56%
    19:00 +12°C° 0 mm 3 mps 736 mmHg 64%
    20:00 +11°C° 0 mm 1 mps 737 mmHg 71%
    21:00 +10°C° 0 mm 2 mps 737 mmHg 70%
    22:00 +9°C° 0 mm 3 mps 737 mmHg 68%
    23:00 +9°C° 0 mm 3 mps 737 mmHg 66%

    26 March, Tuesday

    Time Temperature Precipitation Wind Pressure Humidity
    00:00 +8°C° 0 mm 3 mps 737 mmHg 63%
    01:00 +7°C° 0 mm 4 mps 737 mmHg 61%
    02:00 +6°C° 0 mm 4 mps 737 mmHg 58%
    03:00 +6°C° 0 mm 4 mps 737 mmHg 61%
    04:00 +5°C° 0 mm 3 mps 737 mmHg 65%
    05:00 +5°C° 0 mm 3 mps 737 mmHg 68%
    06:00 +6°C° 0 mm 4 mps 737 mmHg 65%
    07:00 +6°C° 0 mm 5 mps 737 mmHg 63%
    08:00 +7°C° 0 mm 6 mps 737 mmHg 60%
    09:00 +8°C° 0 mm 7 mps 737 mmHg 55%
    10:00 +7°C° 0 mm 8 mps 737 mmHg 49%
    11:00 +8°C° 0 mm 9 mps 737 mmHg 44%
    12:00 +8°C° 0 mm 9 mps 736 mmHg 42%
    13:00 +10°C° 0 mm 9 mps 736 mmHg 40%
    14:00 +10°C° 0 mm 9 mps 735 mmHg 38%
    15:00 +10°C° 0 mm 9 mps 735 mmHg 39%
    16:00 +8°C° 0 mm 9 mps 735 mmHg 40%
    17:00 +7°C° 0 mm 8 mps 735 mmHg 40%
    18:00 +6°C° 0 mm 7 mps 736 mmHg 41%
    19:00 +5°C° 0 mm 6 mps 736 mmHg 42%
    20:00 +5°C° 0 mm 5 mps 736 mmHg 43%
    21:00 +5°C° 0.1 mm 4 mps 737 mmHg 51%
    22:00 +4°C° 0.1 mm 3 mps 737 mmHg 58%
    23:00 +4°C° 0.1 mm 2 mps 737 mmHg 65%

    27 March, Wednesday

    Time Temperature Precipitation Wind Pressure Humidity
    00:00 +4°C° 0.8 mm 2 mps 738 mmHg 71%
    01:00 +4°C° 0.8 mm 2 mps 738 mmHg 77%
    02:00 +3°C° 0.8 mm 2 mps 738 mmHg 83%
    03:00 +3°C° 0.8 mm 2 mps 738 mmHg 86%
    04:00 +2°C° 0.8 mm 3 mps 738 mmHg 89%
    05:00 +1°C° 0.8 mm 3 mps 738 mmHg 92%
    06:00 +1°C° 1.4 mm 3 mps 738 mmHg 93%
    07:00 +1°C° 1.4 mm 3 mps 739 mmHg 95%
    08:00 0°C° 1.4 mm 3 mps 739 mmHg 97%
    09:00 +1°C° 1.7 mm 2 mps 739 mmHg 97%
    10:00 +2°C° 1.7 mm 2 mps 740 mmHg 97%
    11:00 +2°C° 1.7 mm 2 mps 740 mmHg 97%
    12:00 +2°C° 0.8 mm 2 mps 740 mmHg 97%
    13:00 +2°C° 0.8 mm 2 mps 740 mmHg 97%
    14:00 +2°C° 0.8 mm 2 mps 740 mmHg 97%
    15:00 +1°C° 0.3 mm 3 mps 740 mmHg 98%
    16:00 +2°C° 0.3 mm 3 mps 741 mmHg 98%
    17:00 +2°C° 0.3 mm 3 mps 741 mmHg 98%
    18:00 +1°C° 0 mm 3 mps 741 mmHg 97%
    19:00 +2°C° 0 mm 2 mps 742 mmHg 96%
    20:00 +1°C° 0 mm 2 mps 742 mmHg 96%
    21:00 +2°C° 0 mm 2 mps 742 mmHg 93%
    22:00 +2°C° 0 mm 2 mps 743 mmHg 91%
    23:00 +2°C° 0 mm 2 mps 743 mmHg 89%
    Show more